User: anonymous   Login
Location: Sewell
(39.7660°N, 75.1450°W)
Time: 03:22:37
(UTC-04:00)
Language:

ISS - Orbit

View from above orbital plane
View from above orbital plane
View from above satellite
View from above satellite

Ground track
Ground track

The orbit data is extracted from the following two-line orbital elements,

1 25544U 98067A   16212.23787037  .00000819  00000-0  19131-4 0  9996
2 25544  51.6430 203.2267 0002188  88.4436  95.9339 15.54893340 11681
Epoch (UTC): 30 July 2016 05:42:32
Eccentricity: 0.0002188
inclination: 51.6430°
perigee height: 401 km
apogee height: 404 km
right ascension of ascending node: 203.2267°
argument of perigee: 88.4436°
revolutions per day: 15.54893340
mean anomaly at epoch: 95.9339°
orbit number at epoch: 1168

The dashed part of the orbit path shows where the satellite is in the earth's shadow,  

DLR